START_TIME,STEP,MOV.,P11,t_acc.,P23,t_acc.,P27,t_acc.,A4,t_acc.
1979-07-30 15:00:22.130 ,1,0,1.,4.8,0.,4.8,0.,4.8,0.,4.8
1979-07-30 15:00:26.930 ,1,0,0.,4.8,0.,4.8,0.,4.8,0.,4.8
1979-07-30 15:00:31.730 ,1,0,3.,4.8,0.,4.8,0.,4.8,0.,4.8
1979-07-30 15:00:36.530 ,1,0,1.,4.8,0.,4.8,0.,4.8,0.,4.8
1979-07-30 15:00:41.330 ,1,0,0.,4.8,0.,4.8,0.,4.8,0.,4.8
1979-07-30 15:00:46.130 ,2,0,0.,4.8,0.,4.8,0.,4.8,0.,4.8
1979-07-30 15:00:50.930 ,2,0,1.,4.8,0.,4.8,0.,4.8,0.,4.8
1979-07-30 15:00:55.730 ,2,0,2.,4.8,0.,4.8,0.,4.8,0.,4.8
1979-07-30 15:01:00.530 ,2,0,1.,4.8,0.,4.8,1.,4.8,0.,4.8
1979-07-30 15:01:05.330 ,2,0,2.,4.8,0.,4.8,0.,4.8,0.,4.8
1979-07-30 15:01:10.130 ,2,0,1.,4.8,0.,4.8,0.,4.8,0.,4.8
1979-07-30 15:01:14.930 ,2,0,3.,4.8,0.,4.8,0.,4.8,0.,4.8
1979-07-30 15:01:19.730 ,2,0,2.,4.8,0.,4.8,0.,4.8,0.,4.8
1979-07-30 15:01:24.530 ,2,0,0.,4.8,0.,4.8,0.,4.8,0.,4.8
1979-07-30 15:01:29.330 ,2,0,1.,4.8,0.,4.8,0.,4.8,0.,4.8
1979-07-30 15:01:34.130 ,3,0,1.,4.8,0.,4.8,0.,4.8,0.,4.8
1979-07-30 15:01:38.930 ,3,0,1.,4.8,0.,4.8,0.,4.8,0.,4.8
1979-07-30 15:01:43.730 ,3,0,0.,4.8,0.,4.8,0.,4.8,0.,4.8
1979-07-30 15:01:48.530 ,3,0,3.,4.8,0.,4.8,0.,4.8,0.,4.8
1979-07-30 15:01:53.330 ,3,0,0.,4.8,0.,4.8,0.,4.8,0.,4.8
1979-07-30 15:01:58.130 ,3,0,0.,4.8,0.,4.8,0.,4.8,0.,4.8
1979-07-30 15:02:02.930 ,3,0,0.,4.8,0.,4.8,0.,4.8,0.,4.8
1979-07-30 15:02:07.730 ,3,0,1.,4.8,0.,4.8,0.,4.8,0.,4.8
1979-07-30 15:02:12.530 ,3,0,1.,4.8,0.,4.8,0.,4.8,0.,4.8
1979-07-30 15:02:17.330 ,3,0,0.,4.8,0.,4.8,0.,4.8,0.,4.8
1979-07-30 15:02:22.130 ,4,0,1.,4.8,0.,4.8,0.,4.8,0.,4.8
1979-07-30 15:02:26.930 ,4,0,1.,4.8,0.,4.8,0.,4.8,0.,4.8
1979-07-30 15:02:31.730 ,4,0,0.,4.8,0.,4.8,0.,4.8,0.,4.8
1979-07-30 15:02:36.530 ,4,0,1.,4.8,0.,4.8,0.,4.8,0.,4.8
1979-07-30 15:02:41.330 ,4,0,1.,4.8,0.,4.8,1.,4.8,0.,4.8
1979-07-30 15:02:46.130 ,4,0,0.,4.8,0.,4.8,0.,4.8,0.,4.8
1979-07-30 15:02:50.930 ,4,0,1.,4.8,0.,4.8,0.,4.8,0.,4.8
1979-07-30 15:02:55.730 ,4,0,3.,4.8,0.,4.8,0.,4.8,0.,4.8
1979-07-30 15:03:00.530 ,4,0,0.,4.8,0.,4.8,0.,4.8,0.,4.8
1979-07-30 15:03:05.330 ,4,0,2.,4.8,0.,4.8,0.,4.8,0.,4.8
1979-07-30 15:03:10.130 ,5,0,1.,4.8,0.,4.8,1.,4.8,0.,4.8
1979-07-30 15:03:14.930 ,5,0,1.,4.8,0.,4.8,1.,4.8,0.,4.8
1979-07-30 15:03:19.730 ,5,0,2.,4.8,0.,4.8,0.,4.8,1.,4.8
1979-07-30 15:03:24.530 ,5,0,3.,4.8,0.,4.8,0.,4.8,0.,4.8
1979-07-30 15:03:29.330 ,5,0,1.,4.8,0.,4.8,0.,4.8,0.,4.8
1979-07-30 15:03:34.130 ,5,0,0.,4.8,0.,4.8,0.,4.8,0.,4.8
1979-07-30 15:03:38.930 ,5,0,2.,4.8,0.,4.8,1.,4.8,0.,4.8
1979-07-30 15:03:43.730 ,5,0,2.,4.8,0.,4.8,1.,4.8,0.,4.8
1979-07-30 15:03:48.530 ,5,0,2.,4.8,0.,4.8,0.,4.8,0.,4.8
1979-07-30 15:03:53.330 ,5,0,1.,4.8,0.,4.8,0.,4.8,0.,4.8
1979-07-30 15:03:58.130 ,6,0,0.,4.8,0.,4.8,0.,4.8,0.,4.8
1979-07-30 15:04:02.930 ,6,0,0.,4.8,0.,4.8,0.,4.8,0.,4.8
1979-07-30 15:04:07.730 ,6,0,0.,4.8,0.,4.8,0.,4.8,0.,4.8
1979-07-30 15:04:12.530 ,6,0,3.,4.8,0.,4.8,0.,4.8,0.,4.8
1979-07-30 15:04:17.330 ,6,0,1.,4.8,0.,4.8,0.,4.8,0.,4.8
1979-07-30 15:04:22.130 ,6,0,2.,4.8,0.,4.8,0.,4.8,0.,4.8
1979-07-30 15:04:26.930 ,6,0,0.,4.8,0.,4.8,0.,4.8,0.,4.8
1979-07-30 15:04:31.730 ,6,0,3.,4.8,0.,4.8,0.,4.8,0.,4.8
1979-07-30 15:04:36.530 ,6,0,2.,4.8,0.,4.8,0.,4.8,0.,4.8
1979-07-30 15:04:41.330 ,6,0,0.,4.8,0.,4.8,0.,4.8,0.,4.8
1979-07-30 15:04:46.130 ,7,0,2.,4.8,0.,4.8,0.,4.8,0.,4.8
1979-07-30 15:04:50.930 ,7,0,3.,4.8,0.,4.8,0.,4.8,0.,4.8
1979-07-30 15:04:55.730 ,7,0,0.,4.8,0.,4.8,0.,4.8,0.,4.8
1979-07-30 15:05:00.530 ,7,0,2.,4.8,0.,4.8,0.,4.8,0.,4.8
1979-07-30 15:05:05.330 ,7,0,0.,4.8,0.,4.8,0.,4.8,0.,4.8
1979-07-30 15:05:10.130 ,7,0,0.,4.8,0.,4.8,0.,4.8,0.,4.8
1979-07-30 15:05:14.930 ,7,0,0.,4.8,0.,4.8,0.,4.8,0.,4.8
1979-07-30 15:05:19.730 ,7,0,2.,4.8,0.,4.8,1.,4.8,0.,4.8
1979-07-30 15:05:24.530 ,7,0,1.,4.8,0.,4.8,1.,4.8,0.,4.8
1979-07-30 15:05:29.330 ,7,0,3.,4.8,0.,4.8,0.,4.8,0.,4.8
1979-07-30 15:05:34.130 ,7,0,1.,4.8,0.,4.8,1.,4.8,0.,4.8
1979-07-30 15:05:38.930 ,7,0,3.,4.8,0.,4.8,1.,4.8,0.,4.8
1979-07-30 15:05:43.730 ,7,0,1.,4.8,0.,4.8,0.,4.8,0.,4.8
1979-07-30 15:05:48.530 ,7,0,0.,4.8,0.,4.8,0.,4.8,0.,4.8
1979-07-30 15:05:53.330 ,7,0,0.,4.8,0.,4.8,0.,4.8,0.,4.8
1979-07-30 15:05:58.130 ,7,0,1.,4.8,0.,4.8,0.,4.8,0.,4.8
1979-07-30 15:06:02.930 ,7,0,2.,4.8,0.,4.8,0.,4.8,0.,4.8
1979-07-30 15:06:07.730 ,7,0,0.,4.8,0.,4.8,0.,4.8,0.,4.8
1979-07-30 15:06:12.530 ,7,0,1.,4.8,0.,4.8,0.,4.8,0.,4.8
1979-07-30 15:06:17.330 ,7,0,0.,4.8,1.,4.8,0.,4.8,0.,4.8
1979-07-30 15:06:22.130 ,6,0,1.,4.8,0.,4.8,0.,4.8,0.,4.8
1979-07-30 15:06:26.930 ,6,0,1.,4.8,0.,4.8,0.,4.8,0.,4.8
1979-07-30 15:06:31.730 ,6,0,1.,4.8,0.,4.8,0.,4.8,0.,4.8
1979-07-30 15:06:36.530 ,6,0,0.,4.8,0.,4.8,0.,4.8,0.,4.8
1979-07-30 15:06:41.330 ,6,0,0.,4.8,0.,4.8,0.,4.8,0.,4.8
1979-07-30 15:06:46.130 ,6,0,0.,4.8,0.,4.8,0.,4.8,0.,4.8
1979-07-30 15:06:50.930 ,6,0,1.,4.8,0.,4.8,0.,4.8,0.,4.8
1979-07-30 15:06:55.730 ,6,0,1.,4.8,0.,4.8,0.,4.8,0.,4.8
1979-07-30 15:07:00.530 ,6,0,0.,4.8,0.,4.8,0.,4.8,0.,4.8
1979-07-30 15:07:05.330 ,6,0,0.,4.8,0.,4.8,0.,4.8,0.,4.8
1979-07-30 15:07:10.130 ,5,0,1.,4.8,0.,4.8,0.,4.8,0.,4.8
1979-07-30 15:07:14.930 ,5,0,3.,4.8,0.,4.8,0.,4.8,0.,4.8
1979-07-30 15:07:19.730 ,5,0,0.,4.8,0.,4.8,0.,4.8,0.,4.8
1979-07-30 15:07:24.530 ,5,0,3.,4.8,0.,4.8,0.,4.8,0.,4.8
1979-07-30 15:07:29.330 ,5,0,2.,4.8,0.,4.8,0.,4.8,0.,4.8
1979-07-30 15:07:34.130 ,5,0,0.,4.8,0.,4.8,0.,4.8,0.,4.8
1979-07-30 15:07:38.930 ,5,0,0.,4.8,0.,4.8,0.,4.8,0.,4.8
1979-07-30 15:07:43.730 ,5,0,1.,4.8,0.,4.8,0.,4.8,0.,4.8
1979-07-30 15:07:48.530 ,5,0,0.,4.8,0.,4.8,0.,4.8,0.,4.8
1979-07-30 15:07:53.330 ,5,0,1.,4.8,0.,4.8,0.,4.8,0.,4.8
1979-07-30 15:07:58.130 ,4,0,0.,4.8,0.,4.8,0.,4.8,0.,4.8
1979-07-30 15:08:02.930 ,4,0,1.,4.8,0.,4.8,0.,4.8,0.,4.8
1979-07-30 15:08:07.730 ,4,0,0.,4.8,0.,4.8,0.,4.8,0.,4.8
1979-07-30 15:08:12.530 ,4,0,0.,4.8,0.,4.8,0.,4.8,0.,4.8
1979-07-30 15:08:17.330 ,4,0,1.,4.8,0.,4.8,0.,4.8,0.,4.8
1979-07-30 15:08:22.130 ,4,0,0.,4.8,0.,4.8,0.,4.8,0.,4.8
1979-07-30 15:08:26.930 ,4,0,3.,4.8,0.,4.8,0.,4.8,0.,4.8
1979-07-30 15:08:31.730 ,4,0,1.,4.8,0.,4.8,0.,4.8,0.,4.8
1979-07-30 15:08:36.530 ,4,0,3.,4.8,0.,4.8,0.,4.8,0.,4.8
1979-07-30 15:08:41.330 ,4,0,1.,4.8,0.,4.8,0.,4.8,0.,4.8
1979-07-30 15:08:46.130 ,3,0,2.,4.8,0.,4.8,0.,4.8,0.,4.8
1979-07-30 15:08:50.930 ,3,0,2.,4.8,0.,4.8,0.,4.8,0.,4.8
1979-07-30 15:08:55.730 ,3,0,1.,4.8,0.,4.8,0.,4.8,0.,4.8
1979-07-30 15:09:00.530 ,3,0,2.,4.8,0.,4.8,0.,4.8,0.,4.8
1979-07-30 15:09:05.330 ,3,0,2.,4.8,0.,4.8,0.,4.8,0.,4.8
1979-07-30 15:09:10.130 ,3,0,1.,4.8,0.,4.8,0.,4.8,0.,4.8
1979-07-30 15:09:14.930 ,3,0,0.,4.8,0.,4.8,0.,4.8,0.,4.8
1979-07-30 15:09:19.730 ,3,0,2.,4.8,0.,4.8,0.,4.8,0.,4.8
1979-07-30 15:09:24.530 ,3,0,0.,4.8,0.,4.8,0.,4.8,0.,4.8
1979-07-30 15:09:29.330 ,3,0,1.,4.8,0.,4.8,0.,4.8,0.,4.8
1979-07-30 15:09:34.130 ,2,0,1.,4.8,0.,4.8,0.,4.8,0.,4.8
1979-07-30 15:09:38.930 ,2,0,3.,4.8,0.,4.8,0.,4.8,0.,4.8
1979-07-30 15:09:43.730 ,2,0,1.,4.8,0.,4.8,0.,4.8,0.,4.8
1979-07-30 15:09:48.530 ,2,0,0.,4.8,0.,4.8,0.,4.8,0.,4.8
1979-07-30 15:09:53.330 ,2,0,1.,4.8,0.,4.8,1.,4.8,0.,4.8
1979-07-30 15:09:58.130 ,2,0,1.,4.8,0.,4.8,1.,4.8,0.,4.8
1979-07-30 15:10:02.930 ,2,0,2.,4.8,0.,4.8,0.,4.8,0.,4.8
1979-07-30 15:10:07.730 ,2,0,1.,4.8,0.,4.8,0.,4.8,0.,4.8
1979-07-30 15:10:12.530 ,2,0,3.,4.8,0.,4.8,1.,4.8,0.,4.8
1979-07-30 15:10:17.330 ,2,0,1.,4.8,0.,4.8,0.,4.8,0.,4.8
1979-07-30 15:10:22.130 ,1,0,1.,4.8,0.,4.8,1.,4.8,0.,4.8
1979-07-30 15:10:26.930 ,1,0,0.,4.8,0.,4.8,0.,4.8,0.,4.8
1979-07-30 15:10:31.730 ,1,0,0.,4.8,0.,4.8,0.,4.8,0.,4.8
1979-07-30 15:10:36.530 ,1,0,1.,4.8,0.,4.8,0.,4.8,0.,4.8
1979-07-30 15:10:41.330 ,1,0,0.,4.8,0.,4.8,0.,4.8,0.,4.8
1979-07-30 15:10:46.130 ,1,0,0.,4.8,0.,4.8,0.,4.8,0.,4.8
1979-07-30 15:10:50.930 ,1,0,1.,4.8,0.,4.8,0.,4.8,0.,4.8
1979-07-30 15:10:55.730 ,1,0,0.,4.8,0.,4.8,0.,4.8,0.,4.8
1979-07-30 15:11:00.530 ,1,0,1.,4.8,0.,4.8,0.,4.8,0.,4.8
1979-07-30 15:11:05.330 ,1,0,2.,4.8,0.,4.8,0.,4.8,0.,4.8
1979-07-30 15:11:10.130 ,0,0,2.,4.8,0.,4.8,0.,4.8,0.,4.8
1979-07-30 15:11:14.930 ,0,0,5.,4.8,0.,4.8,0.,4.8,0.,4.8
1979-07-30 15:11:19.730 ,0,0,0.,4.8,0.,4.8,1.,4.8,0.,4.8
1979-07-30 15:11:24.530 ,0,0,0.,4.8,1.,4.8,1.,4.8,0.,4.8
1979-07-30 15:11:29.330 ,0,0,3.,4.8,0.,4.8,0.,4.8,0.,4.8
1979-07-30 15:11:34.130 ,0,0,1.,4.8,0.,4.8,0.,4.8,0.,4.8
1979-07-30 15:11:38.930 ,0,0,2.,4.8,0.,4.8,1.,4.8,0.,4.8
1979-07-30 15:11:43.730 ,0,0,0.,4.8,0.,4.8,0.,4.8,0.,4.8
1979-07-30 15:11:48.530 ,0,0,2.,4.8,0.,4.8,0.,4.8,0.,4.8
1979-07-30 15:11:53.330 ,0,0,2.,4.8,0.,4.8,1.,4.8,0.,4.8
1979-07-30 15:11:58.130 ,0,0,2.,4.8,0.,4.8,1.,4.8,0.,4.8
1979-07-30 15:12:02.930 ,0,0,0.,4.8,0.,4.8,0.,4.8,0.,4.8
1979-07-30 15:12:07.730 ,0,0,1.,4.8,0.,4.8,0.,4.8,0.,4.8
1979-07-30 15:12:12.530 ,0,0,2.,4.8,0.,4.8,0.,4.8,0.,4.8
1979-07-30 15:12:17.330 ,0,0,3.,4.8,0.,4.8,0.,4.8,0.,4.8
1979-07-30 15:12:22.130 ,0,0,3.,4.8,0.,4.8,0.,4.8,0.,4.8
1979-07-30 15:12:26.930 ,0,0,3.,4.8,0.,4.8,0.,4.8,0.,4.8
1979-07-30 15:12:31.730 ,0,0,0.,4.8,0.,4.8,1.,4.8,0.,4.8
1979-07-30 15:12:36.530 ,0,0,3.,4.8,0.,4.8,0.,4.8,0.,4.8
1979-07-30 15:12:41.330 ,0,0,3.,4.8,0.,4.8,0.,4.8,0.,4.8
1979-07-30 15:12:46.130 ,1,0,0.,4.8,0.,4.8,0.,4.8,0.,4.8
1979-07-30 15:12:50.930 ,1,0,2.,4.8,0.,4.8,0.,4.8,0.,4.8
1979-07-30 15:12:55.730 ,1,0,2.,4.8,0.,4.8,0.,4.8,0.,4.8
1979-07-30 15:13:00.530 ,1,0,2.,4.8,0.,4.8,0.,4.8,0.,4.8
1979-07-30 15:13:05.330 ,1,0,0.,4.8,0.,4.8,0.,4.8,0.,4.8
1979-07-30 15:13:10.130 ,1,0,2.,4.8,0.,4.8,0.,4.8,0.,4.8
1979-07-30 15:13:14.930 ,1,0,2.,4.8,0.,4.8,0.,4.8,0.,4.8
1979-07-30 15:13:19.730 ,1,0,1.,4.8,0.,4.8,0.,4.8,0.,4.8
1979-07-30 15:13:24.530 ,1,0,0.,4.8,0.,4.8,0.,4.8,0.,4.8
1979-07-30 15:13:29.330 ,1,0,1.,4.8,0.,4.8,0.,4.8,0.,4.8
1979-07-30 15:13:34.130 ,2,0,1.,4.8,0.,4.8,0.,4.8,0.,4.8
1979-07-30 15:13:38.930 ,2,0,2.,4.8,0.,4.8,1.,4.8,0.,4.8
1979-07-30 15:13:43.730 ,2,0,2.,4.8,0.,4.8,0.,4.8,0.,4.8
1979-07-30 15:13:48.530 ,2,0,2.,4.8,0.,4.8,1.,4.8,0.,4.8
1979-07-30 15:13:53.330 ,2,0,2.,4.8,0.,4.8,0.,4.8,0.,4.8
1979-07-30 15:13:58.130 ,2,0,1.,4.8,0.,4.8,0.,4.8,0.,4.8
1979-07-30 15:14:02.930 ,2,0,0.,4.8,0.,4.8,0.,4.8,0.,4.8
1979-07-30 15:14:07.730 ,2,0,1.,4.8,0.,4.8,0.,4.8,0.,4.8
1979-07-30 15:14:12.530 ,2,0,0.,4.8,0.,4.8,0.,4.8,0.,4.8
1979-07-30 15:14:17.330 ,2,0,2.,4.8,0.,4.8,0.,4.8,0.,4.8
1979-07-30 15:14:22.130 ,3,0,2.,4.8,0.,4.8,0.,4.8,0.,4.8
1979-07-30 15:14:26.930 ,3,0,2.,4.8,0.,4.8,1.,4.8,0.,4.8
1979-07-30 15:14:31.730 ,3,0,1.,4.8,0.,4.8,0.,4.8,0.,4.8
1979-07-30 15:14:36.530 ,3,0,0.,4.8,0.,4.8,0.,4.8,0.,4.8
1979-07-30 15:14:41.330 ,3,0,1.,4.8,0.,4.8,1.,4.8,0.,4.8
1979-07-30 15:14:46.130 ,3,0,0.,4.8,0.,4.8,0.,4.8,0.,4.8
1979-07-30 15:14:50.930 ,3,0,0.,4.8,0.,4.8,0.,4.8,0.,4.8
1979-07-30 15:14:55.730 ,3,0,0.,4.8,0.,4.8,0.,4.8,0.,4.8
1979-07-30 15:15:00.530 ,3,0,1.,4.8,0.,4.8,0.,4.8,0.,4.8
1979-07-30 15:15:05.330 ,3,0,1.,4.8,0.,4.8,0.,4.8,0.,4.8
1979-07-30 15:15:10.130 ,4,0,2.,4.8,0.,4.8,0.,4.8,0.,4.8
1979-07-30 15:15:14.930 ,4,0,0.,4.8,0.,4.8,0.,4.8,0.,4.8
1979-07-30 15:15:19.730 ,4,0,1.,4.8,0.,4.8,0.,4.8,0.,4.8
1979-07-30 15:15:24.530 ,4,0,0.,4.8,0.,4.8,0.,4.8,0.,4.8
1979-07-30 15:15:29.330 ,4,0,0.,4.8,0.,4.8,0.,4.8,0.,4.8
1979-07-30 15:15:34.130 ,4,0,1.,4.8,0.,4.8,0.,4.8,0.,4.8
1979-07-30 15:15:38.930 ,4,0,1.,4.8,0.,4.8,0.,4.8,0.,4.8
1979-07-30 15:15:43.730 ,4,0,3.,4.8,0.,4.8,1.,4.8,0.,4.8
1979-07-30 15:15:48.530 ,4,0,0.,4.8,0.,4.8,0.,4.8,0.,4.8
1979-07-30 15:15:53.330 ,4,0,0.,4.8,0.,4.8,0.,4.8,0.,4.8
1979-07-30 15:15:58.130 ,5,0,0.,4.8,0.,4.8,0.,4.8,0.,4.8
1979-07-30 15:16:02.930 ,5,0,0.,4.8,0.,4.8,0.,4.8,0.,4.8
1979-07-30 15:16:07.730 ,5,0,1.,4.8,0.,4.8,0.,4.8,0.,4.8
1979-07-30 15:16:12.530 ,5,0,0.,4.8,0.,4.8,0.,4.8,0.,4.8
1979-07-30 15:16:17.330 ,5,0,2.,4.8,0.,4.8,0.,4.8,0.,4.8
1979-07-30 15:16:22.130 ,5,0,0.,4.8,0.,4.8,0.,4.8,0.,4.8
1979-07-30 15:16:26.930 ,5,0,2.,4.8,0.,4.8,0.,4.8,0.,4.8
1979-07-30 15:16:31.730 ,5,0,2.,4.8,0.,4.8,0.,4.8,0.,4.8
1979-07-30 15:16:36.530 ,5,0,1.,4.8,0.,4.8,0.,4.8,0.,4.8
1979-07-30 15:16:41.330 ,5,0,1.,4.8,0.,4.8,0.,4.8,0.,4.8
1979-07-30 15:16:46.130 ,6,0,1.,4.8,0.,4.8,0.,4.8,0.,4.8
1979-07-30 15:16:50.930 ,6,0,1.,4.8,0.,4.8,0.,4.8,0.,4.8
1979-07-30 15:16:55.730 ,6,0,0.,4.8,0.,4.8,0.,4.8,0.,4.8
1979-07-30 15:17:00.530 ,6,0,3.,4.8,0.,4.8,0.,4.8,0.,4.8
1979-07-30 15:17:05.330 ,6,0,3.,4.8,0.,4.8,0.,4.8,0.,4.8
1979-07-30 15:17:10.130 ,6,0,0.,4.8,0.,4.8,0.,4.8,0.,4.8
1979-07-30 15:17:14.930 ,6,0,1.,4.8,0.,4.8,0.,4.8,0.,4.8
1979-07-30 15:17:19.730 ,6,0,0.,4.8,0.,4.8,0.,4.8,0.,4.8
1979-07-30 15:17:24.530 ,6,0,0.,4.8,0.,4.8,0.,4.8,0.,4.8
1979-07-30 15:17:29.330 ,6,0,2.,4.8,0.,4.8,1.,4.8,0.,4.8
1979-07-30 15:17:34.130 ,7,0,1.,4.8,0.,4.8,0.,4.8,0.,4.8
1979-07-30 15:17:38.930 ,7,0,1.,4.8,0.,4.8,0.,4.8,0.,4.8
1979-07-30 15:17:43.730 ,7,0,2.,4.8,0.,4.8,0.,4.8,0.,4.8
1979-07-30 15:17:48.530 ,7,0,0.,4.8,0.,4.8,1.,4.8,0.,4.8
1979-07-30 15:17:53.330 ,7,0,0.,4.8,0.,4.8,0.,4.8,0.,4.8
1979-07-30 15:17:58.130 ,7,0,0.,4.8,0.,4.8,0.,4.8,0.,4.8
1979-07-30 15:18:02.930 ,7,0,1.,4.8,0.,4.8,0.,4.8,0.,4.8
1979-07-30 15:18:07.730 ,7,0,0.,4.8,1.,4.8,0.,4.8,0.,4.8
1979-07-30 15:18:12.530 ,7,0,3.,4.8,0.,4.8,0.,4.8,0.,4.8
1979-07-30 15:18:17.330 ,7,0,1.,4.8,0.,4.8,0.,4.8,0.,4.8
1979-07-30 15:18:22.130 ,7,0,0.,4.8,0.,4.8,0.,4.8,0.,4.8
1979-07-30 15:18:26.930 ,7,0,1.,4.8,0.,4.8,1.,4.8,0.,4.8
1979-07-30 15:18:31.730 ,7,0,1.,4.8,0.,4.8,0.,4.8,0.,4.8
1979-07-30 15:18:36.530 ,7,0,0.,4.8,0.,4.8,0.,4.8,0.,4.8
1979-07-30 15:18:41.330 ,7,0,3.,4.8,0.,4.8,0.,4.8,0.,4.8
1979-07-30 15:18:46.130 ,7,0,2.,4.8,0.,4.8,0.,4.8,0.,4.8
1979-07-30 15:18:50.930 ,7,0,2.,4.8,0.,4.8,0.,4.8,0.,4.8
1979-07-30 15:18:55.730 ,7,0,1.,4.8,0.,4.8,0.,4.8,0.,4.8
1979-07-30 15:19:00.530 ,7,0,2.,4.8,0.,4.8,0.,4.8,0.,4.8
1979-07-30 15:19:05.330 ,7,0,0.,4.8,0.,4.8,0.,4.8,0.,4.8
1979-07-30 15:19:10.130 ,6,0,0.,4.8,0.,4.8,0.,4.8,0.,4.8
1979-07-30 15:19:14.930 ,6,0,0.,4.8,0.,4.8,0.,4.8,0.,4.8
1979-07-30 15:19:19.730 ,6,0,0.,4.8,0.,4.8,0.,4.8,0.,4.8
1979-07-30 15:19:24.530 ,6,0,1.,4.8,0.,4.8,0.,4.8,0.,4.8
1979-07-30 15:19:29.330 ,6,0,2.,4.8,0.,4.8,0.,4.8,0.,4.8
1979-07-30 15:19:34.130 ,6,0,3.,4.8,0.,4.8,0.,4.8,0.,4.8
1979-07-30 15:19:38.930 ,6,0,1.,4.8,0.,4.8,0.,4.8,0.,4.8
1979-07-30 15:19:43.730 ,6,0,1.,4.8,0.,4.8,0.,4.8,0.,4.8
1979-07-30 15:19:48.530 ,6,0,1.,4.8,0.,4.8,0.,4.8,0.,4.8
1979-07-30 15:19:53.330 ,6,0,0.,4.8,0.,4.8,0.,4.8,0.,4.8
1979-07-30 15:19:58.130 ,5,0,1.,4.8,0.,4.8,0.,4.8,0.,4.8
1979-07-30 15:20:02.930 ,5,0,1.,4.8,0.,4.8,1.,4.8,0.,4.8
1979-07-30 15:20:07.730 ,5,0,0.,4.8,0.,4.8,0.,4.8,0.,4.8
1979-07-30 15:20:12.530 ,5,0,0.,4.8,0.,4.8,0.,4.8,0.,4.8
1979-07-30 15:20:17.330 ,5,0,0.,4.8,0.,4.8,0.,4.8,0.,4.8
1979-07-30 15:20:22.130 ,5,0,1.,4.8,0.,4.8,0.,4.8,0.,4.8
1979-07-30 15:20:26.930 ,5,0,2.,4.8,0.,4.8,0.,4.8,0.,4.8
1979-07-30 15:20:31.730 ,5,0,0.,4.8,0.,4.8,0.,4.8,0.,4.8
1979-07-30 15:20:36.530 ,5,0,1.,4.8,0.,4.8,0.,4.8,0.,4.8
1979-07-30 15:20:41.330 ,5,0,0.,4.8,0.,4.8,0.,4.8,0.,4.8
1979-07-30 15:20:46.130 ,4,0,2.,4.8,0.,4.8,0.,4.8,0.,4.8
1979-07-30 15:20:50.930 ,4,0,1.,4.8,0.,4.8,0.,4.8,0.,4.8
1979-07-30 15:20:55.730 ,4,0,0.,4.8,0.,4.8,0.,4.8,0.,4.8
1979-07-30 15:21:00.530 ,4,0,2.,4.8,0.,4.8,0.,4.8,0.,4.8
1979-07-30 15:21:05.330 ,4,0,0.,4.8,0.,4.8,0.,4.8,0.,4.8
1979-07-30 15:21:10.130 ,4,0,0.,4.8,0.,4.8,0.,4.8,0.,4.8
1979-07-30 15:21:14.930 ,4,0,0.,4.8,0.,4.8,1.,4.8,0.,4.8
1979-07-30 15:21:19.730 ,4,0,0.,4.8,0.,4.8,1.,4.8,0.,4.8
1979-07-30 15:21:24.530 ,4,0,1.,4.8,0.,4.8,0.,4.8,0.,4.8
1979-07-30 15:21:29.330 ,4,0,0.,4.8,0.,4.8,0.,4.8,0.,4.8
1979-07-30 15:21:34.130 ,3,0,0.,4.8,0.,4.8,0.,4.8,0.,4.8
1979-07-30 15:21:38.930 ,3,0,1.,4.8,0.,4.8,0.,4.8,0.,4.8
1979-07-30 15:21:43.730 ,3,0,0.,4.8,0.,4.8,0.,4.8,0.,4.8
1979-07-30 15:21:48.530 ,3,0,1.,4.8,0.,4.8,0.,4.8,0.,4.8
1979-07-30 15:21:53.330 ,3,0,1.,4.8,0.,4.8,0.,4.8,0.,4.8
1979-07-30 15:21:58.130 ,3,0,1.,4.8,0.,4.8,0.,4.8,0.,4.8
1979-07-30 15:22:02.930 ,3,0,0.,4.8,0.,4.8,0.,4.8,0.,4.8
1979-07-30 15:22:07.730 ,3,0,3.,4.8,0.,4.8,0.,4.8,0.,4.8
1979-07-30 15:22:12.530 ,3,0,0.,4.8,0.,4.8,0.,4.8,0.,4.8
1979-07-30 15:22:17.330 ,3,0,1.,4.8,0.,4.8,0.,4.8,0.,4.8
1979-07-30 15:22:22.130 ,2,0,1.,4.8,0.,4.8,0.,4.8,0.,4.8
1979-07-30 15:22:26.930 ,2,0,1.,4.8,0.,4.8,1.,4.8,0.,4.8
1979-07-30 15:22:31.730 ,2,0,1.,4.8,0.,4.8,0.,4.8,0.,4.8
1979-07-30 15:22:36.530 ,2,0,0.,4.8,0.,4.8,1.,4.8,0.,4.8
1979-07-30 15:22:41.330 ,2,0,0.,4.8,0.,4.8,1.,4.8,0.,4.8
1979-07-30 15:22:46.130 ,2,0,0.,4.8,0.,4.8,0.,4.8,0.,4.8
1979-07-30 15:22:50.930 ,2,0,0.,4.8,0.,4.8,0.,4.8,0.,4.8
1979-07-30 15:22:55.730 ,2,0,1.,4.8,0.,4.8,0.,4.8,0.,4.8
1979-07-30 15:23:00.530 ,2,0,2.,4.8,0.,4.8,0.,4.8,0.,4.8
1979-07-30 15:23:05.330 ,2,0,2.,4.8,0.,4.8,0.,4.8,0.,4.8
1979-07-30 15:23:10.130 ,1,0,0.,4.8,0.,4.8,1.,4.8,0.,4.8
1979-07-30 15:23:14.930 ,1,0,2.,4.8,0.,4.8,0.,4.8,0.,4.8
1979-07-30 15:23:19.730 ,1,0,0.,4.8,0.,4.8,0.,4.8,0.,4.8
1979-07-30 15:23:24.530 ,1,0,0.,4.8,0.,4.8,1.,4.8,0.,4.8
1979-07-30 15:23:29.330 ,1,0,0.,4.8,0.,4.8,0.,4.8,0.,4.8
1979-07-30 15:23:34.130 ,1,0,0.,4.8,0.,4.8,0.,4.8,0.,4.8
1979-07-30 15:23:38.930 ,1,0,0.,4.8,0.,4.8,0.,4.8,0.,4.8
1979-07-30 15:23:43.730 ,1,0,4.,4.8,0.,4.8,0.,4.8,0.,4.8
1979-07-30 15:23:48.530 ,1,0,0.,4.8,0.,4.8,1.,4.8,0.,4.8
1979-07-30 15:23:53.330 ,1,0,1.,4.8,0.,4.8,0.,4.8,0.,4.8
1979-07-30 15:23:58.130 ,0,0,1.,4.8,0.,4.8,0.,4.8,0.,4.8
1979-07-30 15:24:02.930 ,0,0,0.,4.8,0.,4.8,0.,4.8,0.,4.8
1979-07-30 15:24:07.730 ,0,0,0.,4.8,0.,4.8,0.,4.8,0.,4.8
1979-07-30 15:24:12.530 ,0,0,0.,4.8,0.,4.8,0.,4.8,0.,4.8
1979-07-30 15:24:17.330 ,0,0,0.,4.8,0.,4.8,0.,4.8,0.,4.8
1979-07-30 15:24:22.130 ,0,0,0.,4.8,0.,4.8,0.,4.8,0.,4.8
1979-07-30 15:24:26.930 ,0,0,1.,4.8,0.,4.8,0.,4.8,0.,4.8
1979-07-30 15:24:31.730 ,0,0,2.,4.8,0.,4.8,0.,4.8,0.,4.8
1979-07-30 15:24:36.530 ,0,0,0.,4.8,0.,4.8,0.,4.8,0.,4.8
1979-07-30 15:24:41.330 ,0,0,0.,4.8,0.,4.8,0.,4.8,0.,4.8
1979-07-30 15:24:46.130 ,0,0,0.,4.8,1.,4.8,0.,4.8,0.,4.8
1979-07-30 15:24:50.930 ,0,0,0.,4.8,0.,4.8,0.,4.8,0.,4.8
1979-07-30 15:24:55.730 ,0,0,0.,4.8,0.,4.8,1.,4.8,0.,4.8
1979-07-30 15:25:00.530 ,0,0,1.,4.8,0.,4.8,0.,4.8,0.,4.8
1979-07-30 15:25:05.330 ,0,0,1.,4.8,0.,4.8,0.,4.8,0.,4.8
1979-07-30 15:25:10.130 ,0,0,1.,4.8,0.,4.8,0.,4.8,0.,4.8
1979-07-30 15:25:14.930 ,0,0,2.,4.8,0.,4.8,0.,4.8,0.,4.8
1979-07-30 15:25:19.730 ,0,0,1.,4.8,0.,4.8,0.,4.8,0.,4.8
1979-07-30 15:25:24.530 ,0,0,2.,4.8,0.,4.8,0.,4.8,0.,4.8
1979-07-30 15:25:29.330 ,0,0,1.,4.8,0.,4.8,0.,4.8,0.,4.8
1979-07-30 15:25:34.130 ,1,0,0.,4.8,0.,4.8,0.,4.8,0.,4.8
1979-07-30 15:25:38.930 ,1,0,4.,4.8,0.,4.8,1.,4.8,0.,4.8
1979-07-30 15:25:43.730 ,1,0,2.,4.8,0.,4.8,0.,4.8,0.,4.8
1979-07-30 15:25:48.530 ,1,0,1.,4.8,0.,4.8,0.,4.8,0.,4.8
1979-07-30 15:25:53.330 ,1,0,2.,4.8,0.,4.8,0.,4.8,0.,4.8
1979-07-30 15:25:58.130 ,1,0,1.,4.8,0.,4.8,0.,4.8,0.,4.8
1979-07-30 15:26:02.930 ,1,0,1.,4.8,0.,4.8,0.,4.8,0.,4.8
1979-07-30 15:26:07.730 ,1,0,1.,4.8,0.,4.8,0.,4.8,0.,4.8
1979-07-30 15:26:12.530 ,1,0,0.,4.8,0.,4.8,0.,4.8,0.,4.8
1979-07-30 15:26:17.330 ,1,0,2.,4.8,0.,4.8,0.,4.8,0.,4.8
1979-07-30 15:26:22.130 ,2,0,0.,4.8,0.,4.8,0.,4.8,0.,4.8
1979-07-30 15:26:26.930 ,2,0,0.,4.8,0.,4.8,0.,4.8,0.,4.8
1979-07-30 15:26:31.730 ,2,0,0.,4.8,0.,4.8,0.,4.8,0.,4.8
1979-07-30 15:26:36.530 ,2,0,0.,4.8,0.,4.8,0.,4.8,0.,4.8
1979-07-30 15:26:41.330 ,2,0,0.,4.8,0.,4.8,0.,4.8,0.,4.8
1979-07-30 15:26:46.130 ,2,0,1.,4.8,0.,4.8,0.,4.8,0.,4.8
1979-07-30 15:26:50.930 ,2,0,0.,4.8,0.,4.8,0.,4.8,0.,4.8
1979-07-30 15:26:55.730 ,2,0,0.,4.8,0.,4.8,0.,4.8,0.,4.8
1979-07-30 15:27:00.530 ,2,0,3.,4.8,0.,4.8,0.,4.8,0.,4.8
1979-07-30 15:27:05.330 ,2,0,0.,4.8,0.,4.8,0.,4.8,0.,4.8
1979-07-30 15:27:10.130 ,3,0,3.,4.8,1.,4.8,0.,4.8,0.,4.8
1979-07-30 15:27:14.930 ,3,0,0.,4.8,0.,4.8,0.,4.8,0.,4.8
1979-07-30 15:27:19.730 ,3,0,2.,4.8,0.,4.8,0.,4.8,0.,4.8
1979-07-30 15:27:24.530 ,3,0,0.,4.8,0.,4.8,0.,4.8,0.,4.8
1979-07-30 15:27:29.330 ,3,0,4.,4.8,0.,4.8,0.,4.8,0.,4.8
1979-07-30 15:27:34.130 ,3,0,0.,4.8,1.,4.8,0.,4.8,0.,4.8
1979-07-30 15:27:38.930 ,3,0,1.,4.8,0.,4.8,0.,4.8,0.,4.8
1979-07-30 15:27:43.730 ,3,0,1.,4.8,0.,4.8,1.,4.8,0.,4.8
1979-07-30 15:27:48.530 ,3,0,1.,4.8,0.,4.8,0.,4.8,0.,4.8
1979-07-30 15:27:53.330 ,3,0,0.,4.8,0.,4.8,0.,4.8,0.,4.8
1979-07-30 15:27:58.130 ,4,0,0.,4.8,0.,4.8,1.,4.8,0.,4.8
1979-07-30 15:28:02.930 ,4,0,0.,4.8,0.,4.8,0.,4.8,0.,4.8
1979-07-30 15:28:07.730 ,4,0,0.,4.8,0.,4.8,0.,4.8,0.,4.8
1979-07-30 15:28:12.530 ,4,0,2.,4.8,0.,4.8,0.,4.8,0.,4.8
1979-07-30 15:28:17.330 ,4,0,2.,4.8,0.,4.8,1.,4.8,0.,4.8
1979-07-30 15:28:22.130 ,4,0,0.,4.8,0.,4.8,0.,4.8,0.,4.8
1979-07-30 15:28:26.930 ,4,0,3.,4.8,0.,4.8,1.,4.8,0.,4.8
1979-07-30 15:28:31.730 ,4,0,0.,4.8,0.,4.8,0.,4.8,0.,4.8
1979-07-30 15:28:36.530 ,4,0,0.,4.8,0.,4.8,0.,4.8,0.,4.8
1979-07-30 15:28:41.330 ,4,0,0.,4.8,0.,4.8,1.,4.8,0.,4.8
1979-07-30 15:28:46.130 ,5,0,0.,4.8,0.,4.8,0.,4.8,0.,4.8
1979-07-30 15:28:50.930 ,5,0,2.,4.8,0.,4.8,0.,4.8,0.,4.8
1979-07-30 15:28:55.730 ,5,0,1.,4.8,0.,4.8,0.,4.8,0.,4.8
1979-07-30 15:29:00.530 ,5,0,1.,4.8,0.,4.8,0.,4.8,0.,4.8
1979-07-30 15:29:05.330 ,5,0,1.,4.8,0.,4.8,2.,4.8,0.,4.8
1979-07-30 15:29:10.130 ,5,0,0.,4.8,0.,4.8,0.,4.8,0.,4.8
1979-07-30 15:29:14.930 ,5,0,1.,4.8,0.,4.8,0.,4.8,0.,4.8
1979-07-30 15:29:19.730 ,5,0,1.,4.8,0.,4.8,0.,4.8,0.,4.8
1979-07-30 15:29:24.530 ,5,0,0.,4.8,0.,4.8,0.,4.8,0.,4.8
1979-07-30 15:29:29.330 ,5,0,2.,4.8,0.,4.8,0.,4.8,0.,4.8
1979-07-30 15:29:34.130 ,6,0,1.,4.8,0.,4.8,0.,4.8,0.,4.8
1979-07-30 15:29:38.930 ,6,0,1.,4.8,0.,4.8,0.,4.8,0.,4.8
1979-07-30 15:29:43.730 ,6,0,0.,4.8,0.,4.8,0.,4.8,0.,4.8
1979-07-30 15:29:48.530 ,6,0,2.,4.8,0.,4.8,0.,4.8,0.,4.8
1979-07-30 15:29:53.330 ,6,0,2.,4.8,0.,4.8,0.,4.8,0.,4.8
1979-07-30 15:29:58.130 ,6,0,1.,4.8,0.,4.8,0.,4.8,0.,4.8
1979-07-30 15:30:02.930 ,6,0,2.,4.8,0.,4.8,0.,4.8,0.,4.8
1979-07-30 15:30:07.730 ,6,0,4.,4.8,0.,4.8,0.,4.8,0.,4.8
1979-07-30 15:30:12.530 ,6,0,0.,4.8,0.,4.8,1.,4.8,0.,4.8
1979-07-30 15:30:17.330 ,6,0,1.,4.8,0.,4.8,0.,4.8,0.,4.8
1979-07-30 15:30:22.130 ,7,0,0.,4.8,0.,4.8,0.,4.8,0.,4.8
1979-07-30 15:30:26.930 ,7,0,1.,4.8,0.,4.8,0.,4.8,0.,4.8
1979-07-30 15:30:31.730 ,7,0,0.,4.8,0.,4.8,0.,4.8,0.,4.8
1979-07-30 15:30:36.530 ,7,0,1.,4.8,0.,4.8,0.,4.8,0.,4.8
1979-07-30 15:30:41.330 ,7,0,0.,4.8,0.,4.8,0.,4.8,0.,4.8
1979-07-30 15:30:46.130 ,7,0,0.,4.8,0.,4.8,0.,4.8,0.,4.8
1979-07-30 15:30:50.930 ,7,0,1.,4.8,0.,4.8,0.,4.8,0.,4.8
1979-07-30 15:30:55.730 ,7,0,1.,4.8,0.,4.8,0.,4.8,0.,4.8
1979-07-30 15:31:00.530 ,7,0,1.,4.8,0.,4.8,0.,4.8,0.,4.8
1979-07-30 15:31:05.330 ,7,0,1.,4.8,0.,4.8,0.,4.8,0.,4.8
1979-07-30 15:31:10.130 ,3,1,1.,4.8,0.,4.8,0.,4.8,0.,4.8
1979-07-30 15:31:14.930 ,3,1,1.,4.8,1.,4.8,0.,4.8,0.,4.8
1979-07-30 15:31:19.730 ,3,1,0.,4.8,0.,4.8,0.,4.8,0.,4.8
1979-07-30 15:31:24.530 ,3,1,2.,4.8,0.,4.8,1.,4.8,0.,4.8
1979-07-30 15:31:29.330 ,3,1,1.,4.8,0.,4.8,0.,4.8,0.,4.8
1979-07-30 15:31:34.130 ,0,1,0.,4.8,0.,4.8,0.,4.8,0.,4.8
1979-07-30 15:31:38.930 ,0,1,0.,4.8,0.,4.8,0.,4.8,0.,4.8
1979-07-30 15:31:43.730 ,0,1,1.,4.8,0.,4.8,0.,4.8,0.,4.8
1979-07-30 15:31:48.530 ,0,1,1.,4.8,0.,4.8,0.,4.8,0.,4.8
1979-07-30 15:31:53.330 ,0,1,0.,4.8,0.,4.8,0.,4.8,0.,4.8
1979-07-30 15:31:58.130 ,4,1,2.,4.8,0.,4.8,0.,4.8,0.,4.8
1979-07-30 15:32:02.930 ,4,1,3.,4.8,0.,4.8,0.,4.8,0.,4.8
1979-07-30 15:32:07.730 ,4,1,0.,4.8,0.,4.8,0.,4.8,0.,4.8
1979-07-30 15:32:12.530 ,4,1,0.,4.8,0.,4.8,0.,4.8,0.,4.8
1979-07-30 15:32:17.330 ,4,1,1.,4.8,0.,4.8,0.,4.8,0.,4.8
1979-07-30 15:32:22.130 ,7,1,2.,4.8,0.,4.8,0.,4.8,0.,4.8
1979-07-30 15:32:26.930 ,7,1,1.,4.8,0.,4.8,0.,4.8,0.,4.8
1979-07-30 15:32:31.730 ,7,1,0.,4.8,0.,4.8,0.,4.8,0.,4.8
1979-07-30 15:32:36.530 ,7,1,1.,4.8,0.,4.8,0.,4.8,0.,4.8
1979-07-30 15:32:41.330 ,7,1,2.,4.8,0.,4.8,0.,4.8,0.,4.8
1979-07-30 15:32:46.130 ,3,1,2.,4.8,0.,4.8,0.,4.8,0.,4.8
1979-07-30 15:32:50.930 ,3,1,1.,4.8,0.,4.8,0.,4.8,0.,4.8
1979-07-30 15:32:55.730 ,3,1,1.,4.8,0.,4.8,0.,4.8,0.,4.8
1979-07-30 15:33:00.530 ,3,1,0.,4.8,0.,4.8,0.,4.8,0.,4.8
1979-07-30 15:33:05.330 ,3,1,2.,4.8,0.,4.8,0.,4.8,0.,4.8
1979-07-30 15:33:10.130 ,0,1,5.,4.8,0.,4.8,0.,4.8,0.,4.8
1979-07-30 15:33:14.930 ,0,1,0.,4.8,1.,4.8,0.,4.8,0.,4.8